Weather in Bokovo

Russia / Tyumen Oblast     56°48′09″N   70°15′50″E
temp.,
°C
wind,
m/s
gust,
m/s
humid.,
%
clouds,
%
prec.,
mm/h
press.,
hPa
HPBL,
m
26 february, fri
fri2623:00−29nw349899 0.1 102574
02:00−31wnw349829 0.0 102634
05:00−32wnw339814 0.0 102832
08:00−33wnw23977 0.0 102920
11:00−27w239117 0.0 1030237
14:00−23wsw238898 0.0 1030396
17:00−23sw229499 0.0 103133
20:00−27sw239889 0.0 103120
27 february, sat
sat2723:00−28sw239756 0.0 103119
02:00−30ssw23981 0.0 103119
05:00−31ssw33989 0.0 103129
08:00−31s339824 0.0 103143
11:00−25s349519 0.0 1031234
14:00−22sse459479 0.0 1029325
17:00−23se489582 0.0 1029227
20:00−26se410963 0.0 1028191
28 february, sun
sun2823:00−27se5109538 0.0 1026212
02:00−25ese5996100 0.0 1023251
05:00−23ese51097100 0.1 1021300
08:00−21ese61196100 0.2 1019380
11:00−18ese61194100 0.4 1017445
14:00−14ese61093100 0.3 1015596
17:00−14ese61093100 0.8 1013599
20:00−15e51095100 0.3 1012475
1 march, mon
mon123:00−15e5995100 0.7 1012394
02:00−16ene5895100 0.3 1011339
05:00−16ene4796100 0.6 1011312
08:00−17ne4696100 0.4 1010303
11:00−15ne3594100 0.8 1011330
14:00−13n3492100 0.3 1011428
17:00−13nnw3594100 0.4 1012257
20:00−16nw349693 0.1 101479
2 march, tue
tue223:00−16wnw359693 0.1 1015126
02:00−18wnw359792 0.1 1015130
05:00−21wnw349886 0.1 101675
08:00−23w359876 0.0 1017100
11:00−18w359264 0.0 1017266
14:00−15wsw359092 0.0 1016457
17:00−16sw339496 0.0 101672
20:00−20sw349825 0.0 101663